Location: Newark
(48.1500°N, 13.1167°E)
Time: 12:29:53
(UTC+00:00)

XW-2D - Pass Details

Date: 09 December 2021
Orbit: 502 x 522 km, 97.5° (Epoch: 21 January)

Event Time Altitude Azimuth Distance (km) Brightness Sun altitude
Rises 06:02:14 0° 3° (N) 2,670 ? -7.1°
Reaches altitude 10° 06:04:32 10° 352° (N) 1,776 ? -6.8°
Maximum altitude 06:07:50 28° 292° (WNW) 1,009 ? -6.3°
Drops below altitude 10° 06:11:06 10° 233° (SW) 1,760 ? -5.8°
Sets 06:13:23 0° 222° (SW) 2,641 ? -5.5°
